EN

Hourly Weather Lagoa da Prata

Today, 25 July, Sunday

Time Temperature Precipitation Wind Pressure Humidity
00:00 +14°C° 0 mm 1 mps 709 mmHg 59%
01:00 +14°C° 0 mm 1 mps 708 mmHg 64%
02:00 +13°C° 0 mm 1 mps 708 mmHg 68%
03:00 +12°C° 0 mm 0 mps 708 mmHg 72%
04:00 +11°C° 0 mm 0 mps 708 mmHg 75%
05:00 +11°C° 0 mm 0 mps 708 mmHg 79%
06:00 +10°C° 0 mm 0 mps 708 mmHg 82%
07:00 +14°C° 0 mm 1 mps 709 mmHg 74%
08:00 +16°C° 0 mm 2 mps 709 mmHg 66%
09:00 +19°C° 0 mm 2 mps 710 mmHg 58%
10:00 +21°C° 0 mm 3 mps 710 mmHg 49%
11:00 +24°C° 0 mm 3 mps 710 mmHg 40%
12:00 +26°C° 0 mm 3 mps 709 mmHg 31%
13:00 +27°C° 0 mm 3 mps 709 mmHg 28%
14:00 +28°C° 0 mm 3 mps 708 mmHg 26%
15:00 +29°C° 0 mm 3 mps 707 mmHg 23%
16:00 +26°C° 0 mm 2 mps 707 mmHg 27%
17:00 +24°C° 0 mm 2 mps 707 mmHg 30%
18:00 +21°C° 0 mm 2 mps 706 mmHg 34%
19:00 +20°C° 0 mm 1 mps 707 mmHg 36%
20:00 +19°C° 0 mm 1 mps 707 mmHg 38%
21:00 +18°C° 0 mm 1 mps 707 mmHg 40%
22:00 +16°C° 0 mm 1 mps 707 mmHg 43%
23:00 +15°C° 0 mm 1 mps 707 mmHg 45%

Tomorrow, 26 July, Monday

Time Temperature Precipitation Wind Pressure Humidity
00:00 +14°C° 0 mm 1 mps 707 mmHg 48%
01:00 +14°C° 0 mm 1 mps 707 mmHg 53%
02:00 +13°C° 0 mm 1 mps 707 mmHg 58%
03:00 +12°C° 0 mm 1 mps 707 mmHg 63%
04:00 +11°C° 0 mm 0 mps 707 mmHg 68%
05:00 +11°C° 0 mm 0 mps 707 mmHg 73%
06:00 +10°C° 0 mm 0 mps 707 mmHg 78%
07:00 +14°C° 0 mm 1 mps 708 mmHg 70%
08:00 +18°C° 0 mm 1 mps 709 mmHg 62%
09:00 +19°C° 0 mm 2 mps 709 mmHg 54%
10:00 +21°C° 0 mm 2 mps 709 mmHg 47%
11:00 +25°C° 0 mm 2 mps 709 mmHg 40%
12:00 +27°C° 0 mm 3 mps 709 mmHg 33%
13:00 +27°C° 0 mm 2 mps 708 mmHg 30%
14:00 +28°C° 0 mm 2 mps 707 mmHg 27%
15:00 +29°C° 0 mm 2 mps 706 mmHg 25%
16:00 +26°C° 0 mm 2 mps 706 mmHg 29%
17:00 +24°C° 0 mm 2 mps 706 mmHg 32%
18:00 +22°C° 0 mm 1 mps 705 mmHg 36%
19:00 +21°C° 0 mm 1 mps 706 mmHg 39%
20:00 +20°C° 0 mm 1 mps 706 mmHg 41%
21:00 +19°C° 0 mm 1 mps 706 mmHg 43%
22:00 +18°C° 0 mm 1 mps 706 mmHg 45%
23:00 +18°C° 0 mm 1 mps 706 mmHg 47%

Day after tomorrow, 27 July, Tuesday

Time Temperature Precipitation Wind Pressure Humidity
00:00 +16°C° 0 mm 1 mps 706 mmHg 49%
01:00 +15°C° 0 mm 1 mps 706 mmHg 52%
02:00 +14°C° 0 mm 1 mps 706 mmHg 54%
03:00 +14°C° 0 mm 1 mps 705 mmHg 57%
04:00 +13°C° 0 mm 1 mps 706 mmHg 60%
05:00 +13°C° 0 mm 1 mps 706 mmHg 64%
06:00 +13°C° 0 mm 1 mps 706 mmHg 67%
07:00 +15°C° 0 mm 1 mps 706 mmHg 59%
08:00 +18°C° 0 mm 2 mps 707 mmHg 51%
09:00 +21°C° 0 mm 2 mps 707 mmHg 43%
10:00 +24°C° 0 mm 3 mps 707 mmHg 36%
11:00 +27°C° 0 mm 3 mps 707 mmHg 30%
12:00 +29°C° 0 mm 4 mps 706 mmHg 24%
13:00 +30°C° 0 mm 3 mps 706 mmHg 21%
14:00 +31°C° 0 mm 2 mps 705 mmHg 19%
15:00 +32°C° 0 mm 2 mps 704 mmHg 17%
16:00 +29°C° 0 mm 2 mps 704 mmHg 21%
17:00 +27°C° 0 mm 2 mps 703 mmHg 24%
18:00 +24°C° 0 mm 2 mps 703 mmHg 28%
19:00 +23°C° 0 mm 2 mps 703 mmHg 31%
20:00 +21°C° 0 mm 2 mps 704 mmHg 34%
21:00 +20°C° 0 mm 2 mps 704 mmHg 37%
22:00 +20°C° 0 mm 1 mps 704 mmHg 38%
23:00 +19°C° 0 mm 1 mps 703 mmHg 40%

28 July, Wednesday

Time Temperature Precipitation Wind Pressure Humidity
00:00 +18°C° 0 mm 1 mps 703 mmHg 42%
01:00 +18°C° 0 mm 1 mps 703 mmHg 43%
02:00 +16°C° 0 mm 1 mps 703 mmHg 45%
03:00 +16°C° 0 mm 1 mps 702 mmHg 46%
04:00 +16°C° 0 mm 1 mps 702 mmHg 48%
05:00 +14°C° 0 mm 0 mps 703 mmHg 50%
06:00 +14°C° 0 mm 0 mps 703 mmHg 51%
07:00 +19°C° 0 mm 1 mps 703 mmHg 45%
08:00 +21°C° 0 mm 1 mps 704 mmHg 39%
09:00 +24°C° 0 mm 1 mps 705 mmHg 32%
10:00 +27°C° 0 mm 2 mps 704 mmHg 28%
11:00 +30°C° 0 mm 3 mps 704 mmHg 24%
12:00 +34°C° 0 mm 4 mps 704 mmHg 19%
13:00 +34°C° 0 mm 5 mps 703 mmHg 19%
14:00 +35°C° 0 mm 6 mps 703 mmHg 18%
15:00 +36°C° 0 mm 7 mps 702 mmHg 18%
16:00 +33°C° 0 mm 7 mps 702 mmHg 25%
17:00 +30°C° 0 mm 6 mps 703 mmHg 31%
18:00 +28°C° 0 mm 6 mps 703 mmHg 38%
19:00 +26°C° 0 mm 6 mps 704 mmHg 44%
20:00 +23°C° 0 mm 5 mps 704 mmHg 50%
21:00 +22°C° 0 mm 5 mps 705 mmHg 55%
22:00 +20°C° 0 mm 5 mps 705 mmHg 62%
23:00 +19°C° 0 mm 5 mps 705 mmHg 68%

29 July, Thursday

Time Temperature Precipitation Wind Pressure Humidity
00:00 +16°C° 0 mm 5 mps 706 mmHg 74%
01:00 +15°C° 0 mm 5 mps 706 mmHg 76%
02:00 +15°C° 0 mm 5 mps 706 mmHg 79%
03:00 +14°C° 0 mm 4 mps 706 mmHg 81%
04:00 +14°C° 0 mm 4 mps 706 mmHg 78%
05:00 +13°C° 0 mm 4 mps 706 mmHg 75%
06:00 +13°C° 0 mm 4 mps 706 mmHg 72%
07:00 +14°C° 0 mm 4 mps 707 mmHg 63%
08:00 +15°C° 0 mm 5 mps 707 mmHg 54%
09:00 +17°C° 0 mm 5 mps 708 mmHg 45%
10:00 +19°C° 0 mm 5 mps 708 mmHg 38%
11:00 +21°C° 0 mm 5 mps 708 mmHg 30%
12:00 +23°C° 0 mm 4 mps 707 mmHg 22%
13:00 +25°C° 0 mm 4 mps 707 mmHg 19%
14:00 +26°C° 0 mm 4 mps 706 mmHg 16%
15:00 +27°C° 0 mm 4 mps 706 mmHg 13%
16:00 +23°C° 0 mm 4 mps 706 mmHg 14%
17:00 +21°C° 0 mm 3 mps 706 mmHg 14%
18:00 +18°C° 0 mm 3 mps 706 mmHg 15%
19:00 +17°C° 0 mm 3 mps 706 mmHg 17%
20:00 +14°C° 0 mm 3 mps 706 mmHg 19%
21:00 +13°C° 0 mm 2 mps 707 mmHg 21%
22:00 +12°C° 0 mm 2 mps 707 mmHg 22%
23:00 +10°C° 0 mm 2 mps 707 mmHg 23%

30 July, Friday

Time Temperature Precipitation Wind Pressure Humidity
00:00 +9°C° 0 mm 2 mps 707 mmHg 25%
01:00 +9°C° 0 mm 2 mps 707 mmHg 29%
02:00 +8°C° 0 mm 2 mps 707 mmHg 34%
03:00 +8°C° 0 mm 2 mps 707 mmHg 38%
04:00 +8°C° 0 mm 2 mps 708 mmHg 49%
05:00 +7°C° 0 mm 2 mps 708 mmHg 59%
06:00 +7°C° 0 mm 2 mps 708 mmHg 70%
07:00 +9°C° 0 mm 2 mps 709 mmHg 63%
08:00 +12°C° 0 mm 2 mps 709 mmHg 55%
09:00 +14°C° 0 mm 2 mps 710 mmHg 48%
10:00 +17°C° 0 mm 2 mps 710 mmHg 43%
11:00 +20°C° 0 mm 2 mps 710 mmHg 38%
12:00 +24°C° 0 mm 2 mps 710 mmHg 33%
13:00 +25°C° 0 mm 1 mps 709 mmHg 32%
14:00 +26°C° 0 mm 1 mps 708 mmHg 30%
15:00 +25°C° 0 mm 0 mps 708 mmHg 29%
16:00 +23°C° 0 mm 0 mps 708 mmHg 33%
17:00 +22°C° 0 mm 1 mps 707 mmHg 38%
18:00 +20°C° 0 mm 1 mps 707 mmHg 42%
19:00 +19°C° 0 mm 1 mps 708 mmHg 44%
20:00 +17°C° 0 mm 2 mps 708 mmHg 47%
21:00 +17°C° 0 mm 3 mps 709 mmHg 49%
22:00 +16°C° 0 mm 3 mps 709 mmHg 52%
23:00 +14°C° 0 mm 4 mps 709 mmHg 56%
Show more